This demonstration page uses our WeatherBlox Daily Observations layout. Learn more.

Left ArrowRight Arrow

31.84235, -102.49876

Hourly Observations for August 9, 2015

Temp ( °F °C ) Dew Point ( °F °C ) Humidity (%) Winds ( mph kmh ) Pressure ( in mb ) Visibility ( mi km ) Precip ( " mm )
12:53 am 00:53 Clear 88 31.1 55 12.8 33 33 S 16 26 29.78 1008 10 16 0.00 0.00
1:53 am 01:53 Clear 87 30.6 57 13.9 36 36 SSE 17 28 29.78 1009 10 16 0.00 0.00
2:53 am 02:53 Clear 86 30 58 14.4 39 39 S 15 24 29.79 1009 10 16 0.00 0.00
3:53 am 03:53 Mostly Cloudy 84 28.9 58 14.4 41 41 S 15 24 29.80 1009 10 16 0.00 0.00
4:21 am 04:21 Mostly Cloudy with Thunderstorms 84 28.9 58 14.4 41 41 S 12 19 29.77 1008 10 16 0.00 0.00
4:57 am 04:57 Mostly Clear with Thunderstorms 76 24.4 65 18.3 69 69 Calm 29.85 1011 N/A 0.08 2.03
5:28 am 05:28 Cloudy with Strong Thunderstorms 73 22.8 67 19.4 81 81 Calm 29.85 1011 2 3 0.30 7.62
9:53 am 09:53 undefined 83 28.3 65 18.3 55 55 S 10 17 29.83 1010 N/A 0.00 0.00
10:53 am 10:53 Sunny 86 30 65 18.3 49 49 S 10 17 29.83 1010 10 16 0.00 0.00
11:53 am 11:53 Sunny 89 31.7 65 18.3 45 45 S 12 19 29.83 1010 10 16 0.00 0.00
12:53 pm 12:53 Sunny 93 33.9 64 17.8 38 38 VRB 6 9 29.82 1010 10 16 0.00 0.00
1:53 pm 13:53 Sunny 95 35 63 17.2 35 35 S 10 17 29.81 1010 10 16 0.00 0.00
2:53 pm 14:53 Sunny 97 36.1 62 16.7 32 32 SE 8 13 29.79 1009 10 16 0.00 0.00
3:53 pm 15:53 Sunny 99 37.2 59 15 27 27 SSE 8 13 29.77 1008 10 16 0.00 0.00
4:53 pm 16:53 Sunny 100 37.8 57 13.9 24 24 S 12 19 29.75 1008 10 16 0.00 0.00
5:53 pm 17:53 Sunny 102 38.9 54 12.2 20 20 VRB 3 6 29.73 1007 10 16 0.00 0.00
6:53 pm 18:53 Sunny 100 37.8 54 12.2 21 21 VRB 7 11 29.73 1007 10 16 0.00 0.00
7:53 pm 19:53 Sunny 99 37.2 57 13.9 25 25 S 9 15 29.73 1007 10 16 0.00 0.00
8:33 pm 20:33 Partly Cloudy 97 36.1 55 12.8 24 24 SE 15 24 29.62 1003 10 16 0.00 0.00
8:53 pm 20:53 Mostly Clear 95 35 54 12.2 25 25 SE 12 19 29.76 1008 10 16 0.00 0.00
9:53 pm 21:53 Clear 93 33.9 54 12.2 27 27 SSE 15 24 29.68 1005 10 16 0.00 0.00
10:53 pm 22:53 Clear 91 32.8 53 11.7 27 27 S 18 30 29.81 1009 10 16 0.00 0.00
11:53 pm 23:53 Clear 88 31.1 55 12.8 33 33 S 13 20 29.83 1010 10 16 0.00 0.00

Powered by AerisWeather